Other Surface Observations
Issued by NWS Tucson, AZ

Home | Current Version | Previous Version | Text Only | Print | Product List | Glossary On
Versions: 1 2 3 4 5 6 7 8 9 10 11 12 13 14 15 16 17 18 19 20 21 22 23 24 25 26 27 28 29 30 31 32 33 34 35 36 37 38 39 40 41 42 43 44 45 46 47 48 49 50
413
SXUS55 KTWC 232215
OSOTWC

WEATHER ROUNDUP FOR SOUTHEAST ARIZONA
NATIONAL WEATHER SERVICE TUCSON AZ
315 PM MST THU NOV 23 2017

AZZ504>506-514-232315-
LOCATION       SKY/WX    TMP DP  RH WIND       PRES   REMARKS
TUCSON         SUNNY     88  25  10 NE6       30.03F
DAVIS-MONTHAN  SUNNY     89  26  10 NW5       30.01F
CHILDRENS PARK N/A      N/A N/A  11 N2                PIMA CO DEQ
ALVERNON/22ND  N/A       86 N/A N/A NW2               PIMA CO DEQ
CHERRY/GLENN   N/A       87 N/A N/A N/A               PIMA CO DEQ
TANGERINE      N/A       86 N/A N/A W4                PIMA CO DEQ
CONTL RANCH    N/A       86  23  10 NW2               PIMA CO DEQ
GRANT/1ST      N/A       85  25  11 S10               PIMA CO DEQ
CRAYCROFT/22ND N/A       88  27  11 N4                PIMA CO DEQ
GOLFLINKS/KOLB N/A       85  25  11 NE2               PIMA CO DEQ
AJO/12TH       N/A       86  27  12 SE4               PIMA CO DEQ
FAIRGROUNDS    N/A       85 N/A N/A E13               PIMA CO DEQ
SAGUARO        N/A       89  25  10 W3                *SABINO CYN
SAN CARLOS     N/A       78  25  14 SW3               *SAN CARLOS
GREEN VALLEY   N/A       86  23  10 N3                PIMA CO DEQ
HORSE CAMP CYN N/A       80  25  13 E4G12             *ARAVAIPA CYN
RINCON MTNS    N/A       72  23  16 SW2               *NR MANNING CAMP
$$

AZZ509>511-232315-
LOCATION       SKY/WX    TMP DP  RH WIND       PRES   REMARKS
SAFFORD        SUNNY     77  23  13 VRB6      30.08F
STRAY HORSE    N/A       71  25  18 S2                *
TRAIL CABIN    N/A       75  26  16 NW2               *N OF GRANVILLE
BLACK HILLS    NOT AVBL
DRY LAKE       N/A       72  20  14 S5G10             *NATANES MTNS
NOON CREEK     N/A       75  24  15 E3G10             *PINALENO MTNS
COLUMBINE      N/A       69  10  10 NE2               *PINALENO MTNS
GUTHRIE        N/A       68  23  18 E2                *SW OF GUTHRIE
$$

AZZ502-503-513-232315-
LOCATION       SKY/WX    TMP DP  RH WIND       PRES   REMARKS
NOGALES        SUNNY     86  22   9 N10       30.08F
SELLS          N/A       91  22   8 NE3               *
SASABE         N/A       88  22   9 N5G10             *ALTAR VLY
HOPKINS        N/A       81  22  11 W3                *SANTA RITA MTNS
CARR CYN       N/A       74  26  17 SE3               *W OF HEREFORD
$$

AZZ507-508-512-232315-
LOCATION       SKY/WX    TMP DP  RH WIND       PRES   REMARKS
SIERRA VISTA   SUNNY     79  22  12 E7        30.17F
DOUGLAS        SUNNY     78  22  12 SW5       30.13F
EMPIRE MTNS    NOT AVBL
MULESHOE RANCH N/A       82  24  12 NW7G10            *PRESERVE
HEADQUARTERS   N/A       79  26  14 NE3               *CHIRICAHUA MTNS
$$

.............................NOTES.............................
THIS IS AN AUTOMATED COLLECTIVE WITH MINIMAL QUALITY CONTROL.
PIMA CO DEQ SITES HAVE NONSTANDARD WIND SENSOR HEIGHTS.
PIMA CO DEQ SITES DO NOT REPORT WIND GUSTS.
* INDICATES WIND SENSORS LOCATED AT 20 FEET INSTEAD OF 33 FEET.
..............................KEY..............................
SKY/WX - SKY CONDITION/WEATHER
TMP    - TEMPERATURE IN FAHRENHEIT
DP     - DEWPOINT IN FAHRENHEIT
RH     - RELATIVE HUMIDITY IN PERCENT
WIND   - DIRECTION AND SPEED IN MILES PER HOUR (MPH)
VRB    - VARIABLE WIND DIRECTION
PRES   - MEAN SEA LEVEL PRESSURE IN INCHES OF MERCURY
         F - FALLING PRESSURE   R - RISING PRESSURE
         S - STEADY PRESSURE
VSB    - VISIBILITY IN MILES
HX     - HEAT INDEX IN FAHRENHEIT
WCI    - WIND CHILL INDEX IN FAHRENHEIT
N/A    - NOT AVAILABLE
AFB    - AIR FORCE BASE
         DAVIS-MONTHAN IS DAVIS-MONTHAN AIR FORCE BASE
CYN    - CANYON
MTNS   - MOUNTAINS
NCA    - NATIONAL CONSERVATION AREA
NR     - NEAR
VLY    - VALLEY
CONTL  - CONTINENTAL
PIMA CO DEQ - PIMA COUNTY DEPT OF ENVIRONMENTAL QUALITY



USA.gov is the U.S. government's official web portal to all federal, state and local government web resources and services.